Flag for Switzerland Weather past 2 weeks in Delémont, Jura, Switzerland

Now
38 °F

Chilly.


Feels Like: 38 °F
Forecast: 33 / 46 °F
Wind: 2 mph from Northeast

Location: Grenchen

Current Time: Dec 21, 2014 at 12:40:59 PM

Latest Report: Dec 21, 2014 at 11:00 AM


Visibility: N/A

Pressure: 30.63 "Hg

Humidity: 84%

Dew point: 34 °F

Location of DelémontLocation

Historic Weather in Delémont — Graph

°F

Delémont temperature yesterday

Maximum temperature yesterday: 49 °F (at 2:00 PM)
Minimum temperature yesterday: 39 °F (at 10:00 PM)
Average temperature yesterday: 45 °F

Past Weeks' High & Low Weather Summary

 TemperatureHumidityPressure
High53 °F (Dec 19, 1:00 PM)100% (Dec 10, 2:00 AM)30.64 "Hg (Dec 10, 2:00 AM)
Low27 °F (Dec 10, 5:00 AM)58% (Dec 20, 8:00 PM)29.91 "Hg (Dec 12, 4:00 PM)
Average41 °F90%30.19 "Hg
* Reported Dec 6 11:00 AM — Dec 21 11:00 AM, Delémont, Weather by CustomWeather, © 2014

Note: Actual official high and low records may vary slightly from our data, if they occured in-between our weather recording intervals... More about our weather records

Advertising

Delémont weather history for previous 24 hours

 ConditionsComfort  
Time TempWeatherWind HumidityBarometerVisibility
11:00 AM
Dec 21
38 °FChilly.2 mph84%30.63 "HgN/A
10:00 AM35 °FChilly.2 mph93%30.63 "HgN/A
9:00 AM32 °FChilly.1 mph97%30.64 "HgN/A
8:00 AM32 °FChilly.3 mph97%30.63 "HgN/A
7:00 AM34 °FChilly.3 mph94%30.61 "HgN/A
6:00 AM35 °FChilly.5 mph90%30.62 "HgN/A
5:00 AM40 °FQuite cool.10 mph74%30.59 "HgN/A
4:00 AM38 °FChilly.6 mph83%30.59 "HgN/A
3:00 AM39 °FChilly.6 mph79%30.59 "HgN/A
2:00 AM40 °FChilly.6 mph79%30.58 "HgN/A
1:00 AM40 °FQuite cool.2 mph73%30.57 "HgN/A
12:00 AM40 °FQuite cool.2 mph72%30.56 "HgN/A
11:00 PM
Dec 20
41 °FQuite cool.10 mph67%30.54 "HgN/A
10:00 PM39 °FChilly.8 mph72%30.53 "HgN/A
9:00 PM41 °FQuite cool.12 mph64%30.52 "HgN/A
8:00 PM42 °FQuite cool.20 mph58%30.49 "HgN/A
7:00 PM42 °FQuite cool.22 mph60%30.46 "HgN/A
6:00 PM42 °FQuite cool.23 mph63%30.42 "HgN/A
5:00 PM42 °FQuite cool.21 mph63%30.39 "HgN/A
4:00 PM44 °FQuite cool.17 mph62%30.37 "HgN/A
3:00 PM47 °FCool.21 mph59%30.34 "HgN/A
2:00 PM49 °FCool.14 mph61%30.34 "HgN/A
1:00 PM49 °FCool.8 mph68%30.35 "HgN/A
12:00 PM47 °FCool.16 mph68%30.40 "HgN/A
Weather by CustomWeather, © 2014

See weather overviewHow to use our weather pages